Glasgow, MT

2:55 PM MST on November 18, 2017 (GMT -0700)
Wokal-Glasgow International

Weather History for KGGW - August, 2013

Change the Weather History Date:

Tuesday, August 20, 2013

  Actual Average Record
Temperature  
Mean Temperature 73 °F 70 °F  
Max Temperature 89 °F 84 °F 101 °F (1942)
Min Temperature 57 °F 55 °F 37 °F (1902)
Degree Days  
Heating Degree Days 0 1  
Month to date heating degree days 5 12  
Since 1 June heating degree days 99 135  
Since 1 July heating degree days 15 30  
Cooling Degree Days 8 6  
Month to date cooling degree days 117 147  
Year to date cooling degree days 347 446  
Since 1 June cooling degree days 338 429  
Growing Degree Days 22 (Base 50)    
Moisture  
Dew Point 47 °F    
Average Humidity 51    
Maximum Humidity 80    
Minimum Humidity 22    
Precipitation  
Precipitation 0.00 in 0.04 in 1.59 in (1966)
Month to date precipitation 0.15 0.85  
Year to date precipitation 12.56 8.78  
Snow  
Snow 0.00 in 0.00 in 0.00 in (2002)
Month to date snowfall 0.0 0.0  
Since 1 June snowfall 0.0 0.0  
Since 1 July snowfall 0.0 0.0  
Snow Depth 0.00 in    
Sea Level Pressure  
Sea Level Pressure 29.80 in    
Wind  
Wind Speed 9 mph (NW)    
Max Wind Speed 20 mph    
Max Gust Speed 25 mph    
Visibility 10 miles    
Events      
T = Trace of Precipitation, MM = Missing Value Source: NWS Daily Summary

Daily Weather History Graph

Daily Weather History Graph

Search for Another Location

Airport or City:

Trip Planner

Search our weather history database for the weather conditions in past years. The results will help you decide how hot, cold, wet, or windy it might be!

Date:

Astronomy

Aug. 20, 2013 Rise Set
Actual Time 6:08 AM MDT 8:10 PM MDT
Civil Twilight 5:34 AM MDT 8:43 PM MDT
Nautical Twilight 4:52 AM MDT 9:25 PM MDT
Astronomical Twilight 4:05 AM MDT 10:11 PM MDT
Moon 7:38 PM MDT (8/20) 5:43 AM MDT (8/20)
Length of Visible Light 15h 09m
Length of Day
14h 02m
Full, 100% of the Moon is Illuminated
Aug 20
Full
Aug 20
Full
Aug 28
Last Quarter
Sep 5
New
Sep 12
First Quarter

Hourly Weather History & Observations

Time (MDT) Temp. Dew Point Humidity Pressure Visibility Wind Dir Wind Speed Gust Speed Precip Events Conditions
12:53 AM 66.0 °F 51.1 °F 59% 29.71 in 10.0 mi SE 9.2 mph - N/A   Clear
1:53 AM 63.0 °F 48.9 °F 60% 29.72 in 10.0 mi East 6.9 mph - N/A   Clear
2:53 AM 62.1 °F 48.0 °F 60% 29.72 in 10.0 mi Calm Calm - N/A   Clear
3:53 AM 57.9 °F 51.1 °F 78% 29.74 in 10.0 mi West 5.8 mph - N/A   Clear
4:53 AM 60.1 °F 48.9 °F 67% 29.75 in 10.0 mi West 6.9 mph - N/A   Clear
5:53 AM 59.0 °F 48.0 °F 67% 29.77 in 10.0 mi NNW 5.8 mph - N/A   Clear
6:53 AM 61.0 °F 48.9 °F 64% 29.80 in 10.0 mi NNW 5.8 mph - N/A   Clear
7:53 AM 68.0 °F 48.0 °F 49% 29.81 in 10.0 mi WNW 4.6 mph - N/A   Clear
8:53 AM 73.0 °F 48.0 °F 41% 29.83 in 10.0 mi NW 13.8 mph - N/A   Clear
9:53 AM 78.1 °F 48.0 °F 35% 29.83 in 10.0 mi NW 15.0 mph - N/A   Clear
10:53 AM 81.0 °F 48.0 °F 31% 29.83 in 10.0 mi NW 17.3 mph 23.0 mph N/A   Clear
11:53 AM 82.9 °F 48.0 °F 29% 29.84 in 10.0 mi WNW 15.0 mph 19.6 mph N/A   Clear
12:53 PM 84.9 °F 48.9 °F 29% 29.83 in 10.0 mi West 12.7 mph - N/A   Clear
1:53 PM 87.1 °F 46.9 °F 25% 29.83 in 10.0 mi NW 11.5 mph 20.7 mph N/A   Clear
2:53 PM 87.1 °F 44.1 °F 22% 29.83 in 10.0 mi West 15.0 mph 23.0 mph N/A   Clear
3:53 PM 87.1 °F 44.1 °F 22% 29.82 in 10.0 mi NW 15.0 mph 23.0 mph N/A   Clear
4:53 PM 88.0 °F 44.1 °F 22% 29.82 in 10.0 mi NW 12.7 mph - N/A   Clear
5:53 PM 87.1 °F 44.1 °F 22% 29.81 in 10.0 mi NNW 5.8 mph - N/A   Clear
6:53 PM 86.0 °F 44.1 °F 23% 29.81 in 10.0 mi NW 4.6 mph - N/A   Clear
7:53 PM 80.1 °F 45.0 °F 29% 29.81 in 10.0 mi NNW 3.5 mph - N/A   Clear
8:53 PM 73.9 °F 45.0 °F 35% 29.81 in 10.0 mi NE 3.5 mph - N/A   Clear
9:53 PM 69.1 °F 46.0 °F 44% 29.83 in 10.0 mi East 9.2 mph - N/A   Clear
10:53 PM 64.9 °F 46.9 °F 52% 29.85 in 10.0 mi East 11.5 mph - N/A   Clear
11:53 PM 66.0 °F 50.0 °F 56% 29.85 in 10.0 mi East 11.5 mph - N/A   Clear